Change the Weather History Date:

Monday, May 12, 2014

  Actual Average (KLNR) Record (KLNR)
Temperature  
Mean Temperature 70 °F -  
Max Temperature 78 °F 65 °F 84 °F (2011)
Min Temperature 62 °F 45 °F 36 °F (2008)
Cooling Degree Days 5    
Growing Degree Days 20 (Base 50)    
Moisture  
Dew Point 62 °F    
Average Humidity 82    
Maximum Humidity 94    
Minimum Humidity 64    
Precipitation  
Precipitation 0.50 in - - ()
Sea Level Pressure  
Sea Level Pressure 29.80 in    
Wind  
Wind Speed 10 mph (South)    
Max Wind Speed 23 mph    
Max Gust Speed 28 mph    
Visibility 9 miles    
Events Rain    
Averages and records for this station are not official NWS values.
T = Trace of Precipitation, MM = Missing Value Source: NWS Daily Summary

Daily Weather History Graph

Daily Weather History Graph

Search for Another Location

Airport or City:

Trip Planner

Search our weather history database for the weather conditions in past years. The results will help you decide how hot, cold, wet, or windy it might be!

Date:

Astronomy

May. 12, 2014 Rise Set
Actual Time 5:41 AM CDT 8:13 PM CDT
Civil Twilight 5:09 AM CDT 8:46 PM CDT
Nautical Twilight 4:28 AM CDT 9:26 PM CDT
Astronomical Twilight 3:43 AM CDT 10:12 PM CDT
Moon 6:09 PM CDT (5/12) 4:24 AM CDT (5/12)
Length of Visible Light 15h 37m
Length of Day
14h 32m
Waxing Gibbous, 95% of the Moon is Illuminated
May 12
Waxing Gibbous
May 14
Full
May 21
Last Quarter
May 28
New
Jun 5
First Quarter

Hourly Weather History & Observations

Time (CDT) Temp. Dew Point Humidity Pressure Visibility Wind Dir Wind Speed Gust Speed Precip Events Conditions
12:15 AM 64.4 °F 60.8 °F 88% 29.83 in 10.0 mi ESE 9.2 mph - N/A   Overcast
12:35 AM 64.4 °F 60.8 °F 88% 29.84 in 10.0 mi SE 15.0 mph - N/A   Overcast
12:55 AM 64.4 °F 60.8 °F 88% 29.83 in 10.0 mi SE 12.7 mph - N/A   Overcast
1:15 AM 64.4 °F 60.8 °F 88% 29.83 in 10.0 mi SE 11.5 mph - N/A   Overcast
1:35 AM 64.4 °F 60.8 °F 88% 29.81 in 10.0 mi SE 12.7 mph 16.1 mph N/A   Overcast
1:55 AM 64.4 °F 59.0 °F 83% 29.80 in 10.0 mi SE 13.8 mph 20.7 mph N/A   Mostly Cloudy
2:15 AM 64.4 °F 59.0 °F 83% 29.80 in 10.0 mi SSE 12.7 mph - N/A   Scattered Clouds
2:35 AM 64.4 °F 60.8 °F 88% 29.80 in 10.0 mi SSE 13.8 mph 18.4 mph N/A   Scattered Clouds
2:55 AM 64.4 °F 60.8 °F 88% 29.79 in 10.0 mi SSE 11.5 mph - N/A   Scattered Clouds
3:15 AM 66.2 °F 60.8 °F 83% 29.79 in 10.0 mi SSE 11.5 mph - N/A   Scattered Clouds
3:35 AM 64.4 °F 62.6 °F 94% 29.81 in 7.0 mi West 18.4 mph 21.9 mph N/A Rain Rain
3:55 AM 64.4 °F 60.8 °F 88% 29.84 in 7.0 mi West 4.6 mph - N/A Rain Light Rain
4:15 AM 64.4 °F 60.8 °F 88% 29.85 in 7.0 mi WSW 9.2 mph - N/A   Mostly Cloudy
4:35 AM 64.4 °F 60.8 °F 88% 29.82 in 7.0 mi West 6.9 mph - N/A Rain Light Rain
4:55 AM 64.4 °F 60.8 °F 88% 29.78 in 10.0 mi NW 3.5 mph - N/A   Mostly Cloudy
5:35 AM 62.6 °F 60.8 °F 94% 29.76 in 4.0 mi SE 6.9 mph - N/A   Mostly Cloudy
5:55 AM 62.6 °F 60.8 °F 94% 29.78 in 5.0 mi SE 6.9 mph - N/A   Clear
6:10 AM 64.4 °F 60.8 °F 88% 29.78 in 5.0 mi SSE 9.2 mph - N/A   Clear
6:35 AM 64.4 °F 62.6 °F 94% 29.79 in 7.0 mi SSE 9.2 mph - N/A   Clear
6:55 AM 64.4 °F 62.6 °F 94% 29.79 in 7.0 mi SSE 10.4 mph - N/A   Clear
7:15 AM 64.4 °F 62.6 °F 94% 29.79 in 7.0 mi SSE 10.4 mph - N/A   Scattered Clouds
7:35 AM 66.2 °F 62.6 °F 88% 29.80 in 10.0 mi SSE 9.2 mph - N/A   Mostly Cloudy
7:55 AM 66.2 °F 60.8 °F 83% 29.79 in 10.0 mi SSE 11.5 mph - N/A   Mostly Cloudy
8:15 AM 68.0 °F 62.6 °F 83% 29.79 in 10.0 mi SSE 9.2 mph - N/A   Scattered Clouds
8:35 AM 68.0 °F 62.6 °F 83% 29.80 in 10.0 mi SSE 8.1 mph - N/A   Mostly Cloudy
8:55 AM 69.8 °F 62.6 °F 78% 29.79 in 10.0 mi SE 6.9 mph - N/A   Mostly Cloudy
9:15 AM 69.8 °F 60.8 °F 73% 29.79 in 10.0 mi SE 5.8 mph - N/A   Overcast
9:35 AM 68.0 °F 62.6 °F 83% 29.81 in 2.5 mi SSW 5.8 mph - N/A Rain Light Rain
9:55 AM 64.4 °F 60.8 °F 88% 29.84 in 4.0 mi NNW 11.5 mph 16.1 mph 0.03 in Rain Light Rain
10:15 AM 64.4 °F 60.8 °F 88% 29.85 in 10.0 mi North 6.9 mph - 0.08 in   Overcast
10:35 AM 64.4 °F 60.8 °F 88% 29.87 in 10.0 mi North 4.6 mph - 0.18 in Rain Light Rain
10:55 AM 64.4 °F 62.6 °F 94% 29.87 in 10.0 mi NE 3.5 mph - 0.27 in Rain Light Rain
11:15 AM 64.4 °F 62.6 °F 94% 29.89 in 10.0 mi Calm Calm - 0.05 in Rain Light Rain
11:35 AM 64.4 °F 62.6 °F 94% 29.88 in 7.0 mi Calm Calm - 0.10 in Rain Rain
11:55 AM 66.2 °F 62.6 °F 88% 29.81 in 5.0 mi ENE 8.1 mph - 0.13 in Rain Rain
12:15 PM 66.2 °F 62.6 °F 88% 29.79 in 7.0 mi ESE 6.9 mph - 0.02 in Rain Light Rain
12:55 PM 69.8 °F 66.2 °F 88% 29.80 in 10.0 mi South 9.2 mph - 0.05 in   Clear
1:15 PM 73.4 °F 66.2 °F 78% 29.80 in 10.0 mi South 10.4 mph - N/A   Clear
1:35 PM 73.4 °F 64.4 °F 73% 29.80 in 10.0 mi South 12.7 mph - 0.01 in   Mostly Cloudy
1:55 PM 73.4 °F 64.4 °F 73% 29.81 in 10.0 mi South 11.5 mph - 0.02 in   Mostly Cloudy
2:35 PM 75.2 °F 68.0 °F 78% 29.82 in 10.0 mi South 6.9 mph - N/A   Overcast
2:55 PM 75.2 °F 68.0 °F 78% 29.82 in 10.0 mi South 8.1 mph - N/A   Overcast
3:35 PM 78.8 °F 69.8 °F 74% 29.81 in 10.0 mi South 8.1 mph - N/A   Mostly Cloudy
3:55 PM 77.0 °F 69.8 °F 78% 29.80 in 10.0 mi SSW 6.9 mph - N/A   Mostly Cloudy
4:15 PM 77.0 °F 69.8 °F 78% 29.80 in 10.0 mi South 6.9 mph - N/A   Mostly Cloudy
4:35 PM 77.0 °F 68.0 °F 74% 29.80 in 10.0 mi SW 10.4 mph 20.7 mph N/A Rain Light Rain
4:55 PM 77.0 °F 66.2 °F 69% 29.78 in 10.0 mi South 10.4 mph - N/A   Mostly Cloudy
5:15 PM 75.2 °F 64.4 °F 69% 29.75 in 10.0 mi South 9.2 mph - N/A Rain Light Rain
5:35 PM 73.4 °F 62.6 °F 69% 29.76 in 10.0 mi SSW 16.1 mph - N/A   Scattered Clouds
5:50 PM 73.4 °F 64.4 °F 73% 29.76 in 10.0 mi South 11.5 mph 19.6 mph N/A   Scattered Clouds
6:15 PM 73.4 °F 64.4 °F 73% 29.78 in 10.0 mi SW 17.3 mph 25.3 mph N/A   Clear
6:35 PM 73.4 °F 64.4 °F 73% 29.78 in 10.0 mi SW 19.6 mph 26.5 mph N/A Rain Light Rain
6:55 PM 73.4 °F 60.8 °F 65% 29.79 in 10.0 mi SW 23.0 mph 27.6 mph N/A Rain Rain
7:15 PM 73.4 °F 60.8 °F 65% 29.79 in 10.0 mi SW 17.3 mph 21.9 mph N/A Rain Rain
7:35 PM 71.6 °F 60.8 °F 69% 29.77 in 10.0 mi SSW 19.6 mph 25.3 mph N/A Rain Rain
7:55 PM 71.6 °F 59.0 °F 64% 29.77 in 10.0 mi SW 19.6 mph 24.2 mph N/A Rain Rain
8:15 PM 69.8 °F 60.8 °F 73% 29.79 in 10.0 mi South 15.0 mph - N/A Rain Rain
8:35 PM 68.0 °F 60.8 °F 78% 29.78 in 10.0 mi SSE 10.4 mph - N/A Rain Rain
8:55 PM 68.0 °F 60.8 °F 78% 29.74 in 10.0 mi ESE 12.7 mph - N/A Rain Light Rain
9:15 PM 68.0 °F 60.8 °F 78% 29.76 in 10.0 mi South 5.8 mph - N/A Rain Light Rain
9:35 PM 68.0 °F 60.8 °F 78% 29.78 in 10.0 mi SE 10.4 mph - N/A   Mostly Cloudy
9:55 PM 68.0 °F 60.8 °F 78% 29.81 in 10.0 mi SSW 11.5 mph - N/A Rain Light Rain
10:15 PM 66.2 °F 60.8 °F 83% 29.82 in 10.0 mi South 9.2 mph - N/A Rain Light Rain
10:35 PM 66.2 °F 60.8 °F 83% 29.83 in 10.0 mi South 11.5 mph - N/A Rain Light Rain
10:55 PM 64.4 °F 60.8 °F 88% 29.83 in 10.0 mi South 10.4 mph - N/A   Overcast
11:15 PM 64.4 °F 60.8 °F 88% 29.82 in 10.0 mi South 11.5 mph - N/A   Mostly Cloudy
11:35 PM 64.4 °F 60.8 °F 88% 29.82 in 10.0 mi SSE 10.4 mph - N/A   Overcast
11:55 PM 64.4 °F 60.8 °F 88% 29.82 in 10.0 mi SSE 8.1 mph - N/A   Overcast